Torna al catalogo

CUBY-4

AttivoScienzaSSO
NORAD 69874·PAYLOAD·🇺🇸 United States

Lanciato Jul 7, 2026 da Vandenberg Space Force Base

Loading…

Prossimi Passaggi (prossime 24 ore)

TLE

AggiornatoSource: Space-Track

Epoca: Sep 13, 2026, 15:57 UTC

1 69874U 26156F   26256.66476403  .00000643  00000-0  70652-4 0  9998
2 69874  97.7442 155.8726 0001544 263.0744  97.0298 14.90968684 10183

Traccia CUBY-4 in tempo reale con AllMySat

Download on the App Store